Location: Campillo
(40.8621°N, 4.2488°W)
Time: 14:07:48
(UTC+00:00)

Cosmos 1933 Rocket - Pass Details

Date: 28 September 2021
Orbit: 607 x 629 km, 82.5° (Epoch: 19 October)

Event Time Altitude Azimuth Distance (km) Brightness Sun altitude
Rises 03:52:00 0° 352° (N) 2,902 7.2 -26.5°
Reaches altitude 10° 03:54:13 10° 353° (N) 1,996 6.3 -26.1°
Enters shadow 03:57:25 48° 355° (N) 823 4.2 -25.5°
